Weather History for Avoca, PA

Change the Weather History Date:

Wednesday, March 13, 2013

  Actual Average Record
Temperature  
Mean Temperature 37 °F 36 °F  
Max Temperature 44 °F 45 °F 80 °F (1990)
Min Temperature 29 °F 27 °F 8 °F (1948)
Degree Days  
Heating Degree Days 28 29  
Month to date heating degree days 378 406  
Since 1 July heating degree days 4602 5012  
Cooling Degree Days 0 0  
Month to date cooling degree days 0 0  
Year to date cooling degree days 0 0  
Moisture  
Dew Point 27 °F    
Average Humidity 71    
Maximum Humidity 96    
Minimum Humidity 45    
Precipitation  
Precipitation T in 0.07 in 1.58 in (1977)
Month to date precipitation 0.95 0.95  
Year to date precipitation 4.28 5.35  
Sea Level Pressure  
Sea Level Pressure 29.86 in    
Wind  
Wind Speed 9 mph (West)    
Max Wind Speed 22 mph    
Max Gust Speed 29 mph    
Visibility 9 miles    
Events Rain , Snow    
T = Trace of Precipitation, MM = Missing Value Source: NWS Daily Summary

Daily Weather History Graph

Daily Weather History Graph

Search for Another Location

Airport:

Trip Planner

Search our weather history database for the weather conditions in past years. The results will help you decide how hot, cold, wet, or windy it might be!

Date:

Astronomy

Mar. 13, 2013 Rise Set
Actual Time 7:17 AM EDT 7:07 PM EDT
Civil Twilight 6:50 AM EDT 7:35 PM EDT
Nautical Twilight 6:18 AM EDT 8:07 PM EDT
Astronomical Twilight 5:45 AM EDT 8:39 PM EDT
Moon 7:54 AM EDT (3/13) 9:23 PM EDT (3/13)
Length of Visible Light 12h 45m
Length of Day
11h 50m
Waxing Crescent, 4% of the Moon is Illuminated
Mar 13
Waxing Crescent
Mar 19
First Quarter
Mar 27
Full
Apr 3
Last Quarter
Apr 10
New

Hourly Weather History & Observations

Time (EDT) Temp. Windchill Dew Point Humidity Pressure Visibility Wind Dir Wind Speed Gust Speed Precip Events Conditions
12:54 AM 37.9 °F 30.9 °F 33.1 °F 83% 29.89 in 10.0 mi NNW 10.4 mph - 0.00 in   Overcast
1:06 AM 37.4 °F 30.8 °F 33.8 °F 87% 29.89 in 10.0 mi North 9.2 mph - 0.00 in Rain Light Rain
2:45 AM 35.6 °F 32.8 °F 33.8 °F 93% 29.88 in 10.0 mi NW 3.5 mph - N/A   Overcast
2:54 AM 36.0 °F - 32.0 °F 86% 29.89 in 10.0 mi Calm Calm - N/A   Overcast
3:54 AM 36.0 °F - 32.0 °F 86% 29.88 in 9.0 mi Calm Calm - N/A   Mostly Cloudy
4:54 AM 34.0 °F 29.8 °F 32.0 °F 92% 29.86 in 7.0 mi SSW 4.6 mph - N/A   Overcast
5:54 AM 35.1 °F 31.0 °F 28.9 °F 78% 29.87 in 10.0 mi West 4.6 mph - N/A   Partly Cloudy
6:54 AM 33.1 °F 28.7 °F 26.1 °F 75% 29.87 in 10.0 mi WSW 4.6 mph - N/A   Clear
7:54 AM 33.1 °F - 26.1 °F 75% 29.88 in 10.0 mi Calm Calm - N/A   Clear
8:54 AM 35.1 °F 28.6 °F 26.1 °F 70% 29.88 in 10.0 mi WSW 8.1 mph - N/A   Clear
9:54 AM 37.9 °F 31.5 °F 25.0 °F 60% 29.88 in 10.0 mi SW 9.2 mph - N/A   Clear
10:54 AM 39.9 °F 34.5 °F 24.1 °F 53% 29.88 in 10.0 mi SW 8.1 mph - N/A   Scattered Clouds
11:54 AM 39.9 °F 33.9 °F 21.9 °F 49% 29.86 in 10.0 mi SW 9.2 mph - N/A   Overcast
12:54 PM 41.0 °F 33.9 °F 21.9 °F 47% 29.85 in 10.0 mi West 12.7 mph - N/A   Mostly Cloudy
1:54 PM 43.0 °F 35.7 °F 24.1 °F 47% 29.83 in 10.0 mi SW 15.0 mph 24.2 mph N/A   Mostly Cloudy
2:54 PM 43.0 °F 35.4 °F 25.0 °F 49% 29.81 in 10.0 mi SW 16.1 mph 23.0 mph N/A   Mostly Cloudy
3:32 PM 35.6 °F 26.2 °F 30.2 °F 81% 29.82 in 1.8 mi West 15.0 mph 27.6 mph 0.00 in Snow Light Snow
3:40 PM 37.4 °F 30.8 °F 33.8 °F 87% 29.81 in 1.2 mi West 9.2 mph - 0.00 in Snow Light Snow
3:43 PM 37.4 °F 32.1 °F 33.8 °F 87% 29.81 in 2.0 mi West 6.9 mph - 0.00 in Snow Light Snow
3:51 PM 37.4 °F 31.4 °F 30.2 °F 75% 29.81 in 9.0 mi West 8.1 mph 16.1 mph 0.00 in   Mostly Cloudy
3:54 PM 37.9 °F 30.9 °F 28.9 °F 70% 29.83 in 10.0 mi West 10.4 mph 16.1 mph 0.00 in   Mostly Cloudy
4:54 PM 39.9 °F 35.8 °F 28.0 °F 63% 29.82 in 10.0 mi SSW 5.8 mph - 0.00 in   Mostly Cloudy
5:54 PM 37.0 °F 29.8 °F 26.1 °F 65% 29.83 in 10.0 mi SW 10.4 mph 18.4 mph 0.00 in   Overcast
6:54 PM 37.0 °F 31.6 °F 25.0 °F 62% 29.85 in 10.0 mi WSW 6.9 mph - N/A   Scattered Clouds
7:54 PM 36.0 °F 29.6 °F 23.0 °F 59% 29.87 in 10.0 mi West 8.1 mph - N/A   Overcast
8:54 PM 36.0 °F 28.0 °F 23.0 °F 59% 29.88 in 10.0 mi SW 11.5 mph - N/A   Overcast
9:54 PM 33.1 °F 23.0 °F 24.1 °F 70% 29.90 in 10.0 mi West 15.0 mph 20.7 mph 0.00 in   Overcast
10:54 PM 30.9 °F 22.2 °F 23.0 °F 72% 29.91 in 10.0 mi NW 10.4 mph - N/A   Overcast
11:54 PM 30.9 °F 19.8 °F 15.1 °F 52% 29.91 in 10.0 mi WNW 16.1 mph 21.9 mph N/A   Overcast